星链-32009 (STARLINK-32009 )

导读 | 豆包AI

STARLINK-32009是美国SpaceX星链星座的卫星,于2024年6月23日发射升空。星链计划旨在构建全球卫星互联网星座,为全球偏远、欠发达地区及传统网络难以覆盖区域提供高速互联网接入服务,该卫星将助力星链网络进一步扩展覆盖范围与服务能力。

Basic Information
目录编号:
60104
目录名称:
STARLINK-32009
国际标识:
2024-117P
轨道中心:
EARTH
卫星名称:
星链-32009
卫星全名:
星链-32009 (STARLINK-32009 )
卫星状态:
在轨 (已飞行630 天)
发射日期:
2024-06-23 UTC
国别 :
美国 (US)
星等 :
--
Orbit Information
数据来源 国际轨道数据
星历时间: 2026-03-15T09:18:19+0800
17小时前
查看轨道信息
半长轴: 6853.433km
偏心率: 0.0000958
轨道倾角: 53.162°
近地点辐角 87.023°
升交点赤经 12.477°
平近点角 273.088°
近地点: 474.639km
远地点: 475.953km
周期: 94.107分钟
每日圈数: 15.301732
Detailed Information
固有亮度:
5
最大亮度:
1.5
卫星平台:
Starlink v2.0 mini
覆盖范围:
全球
运营商:
太空探索技术公司
运营商所在国:
美国
制造商(研发单位):
太空探索技术公司
制造商所在国:
美国
使用方式:
暂无
Satellite Introduction
星链(Starlink)计划是由太空探索技术公司(SpaceX)提出的一个巨型低轨卫星互联网星座项目,计划在2019年至2024年间在太空搭建由约1.2万颗卫星组成的“星链”网络,其中1584颗将部署在地球上空550千米处的近地轨道,并从2020年开始工作。该卫星仍在工作。
2D Orbit Map
3D Orbit Map
Orbit Altitude Analysis Chart
Orbit Inclination Analysis Chart
Orbit Comprehensive Analysis Chart
View Comprehensive Chart